Location: Unspecified
(50.1700°N, 6.8600°E)
Time: 12:29:45
(UTC+00:00)

Cosmos 1634 Rocket - Pass Details

Date: 24 January 2019
Orbit: 959 x 993 km, 82.9° (Epoch: 21 April)

Event Time Altitude Azimuth Distance (km) Brightness Sun altitude
Rises 04:17:27 0° 352° (N) 3,723 7.0 -28.5°
Reaches altitude 10° 04:20:02 10° 355° (N) 2,769 6.3 -28.1°
Maximum altitude 04:26:20 62° 76° (ENE) 1,106 4.4 -27.1°
Drops below altitude 10° 04:32:34 10° 158° (SSE) 2,737 6.6 -26.1°
Sets 04:35:06 0° 161° (SSE) 3,677 7.2 -25.7°
